TimeEDT,TemperatureF,Dew PointF,Humidity,Sea Level PressureIn,VisibilityMPH,Wind Direction,Wind SpeedMPH,Gust SpeedMPH,PrecipitationIn,Events,Conditions,WindDirDegrees,DateUTC
12:56 AM,72.0,68.0,87,29.99,10.0,SSW,4.6,-,N/A,,Clear,200,2013-11-01 04:56:00
1:56 AM,73.0,68.0,84,29.96,10.0,SSW,8.1,-,N/A,,Clear,210,2013-11-01 05:56:00
2:56 AM,73.0,68.0,84,29.94,10.0,SSW,8.1,-,N/A,,Clear,210,2013-11-01 06:56:00
3:56 AM,72.0,68.0,87,29.92,10.0,SSW,5.8,-,N/A,,Clear,210,2013-11-01 07:56:00
4:56 AM,72.0,66.9,84,29.91,10.0,SSW,6.9,-,N/A,,Clear,200,2013-11-01 08:56:00
5:56 AM,71.1,66.9,87,29.89,10.0,SSW,9.2,-,N/A,,Clear,200,2013-11-01 09:56:00
6:56 AM,71.1,66.9,87,29.89,10.0,SSW,6.9,-,N/A,,Scattered Clouds,200,2013-11-01 10:56:00
7:56 AM,71.1,66.9,87,29.91,10.0,SW,9.2,-,N/A,,Mostly Cloudy,220,2013-11-01 11:56:00
8:56 AM,73.0,66.9,81,29.92,10.0,SSW,9.2,-,N/A,,Mostly Cloudy,210,2013-11-01 12:56:00
9:56 AM,73.9,66.9,79,29.93,10.0,SSW,6.9,-,N/A,,Mostly Cloudy,200,2013-11-01 13:56:00
10:56 AM,75.0,66.0,73,29.92,10.0,SSW,8.1,-,N/A,,Overcast,210,2013-11-01 14:56:00
11:56 AM,77.0,64.9,66,29.88,10.0,SSW,8.1,19.6,N/A,,Mostly Cloudy,200,2013-11-01 15:56:00
12:56 PM,81.0,66.9,62,29.86,10.0,SSW,13.8,24.2,N/A,,Mostly Cloudy,200,2013-11-01 16:56:00
1:56 PM,82.9,66.9,58,29.82,10.0,SSW,15.0,21.9,N/A,,Mostly Cloudy,210,2013-11-01 17:56:00
2:56 PM,81.0,64.9,58,29.79,10.0,SW,13.8,24.2,N/A,,Mostly Cloudy,220,2013-11-01 18:56:00
3:56 PM,80.1,64.9,60,29.80,10.0,SW,9.2,17.3,N/A,,Overcast,220,2013-11-01 19:56:00
4:56 PM,77.0,68.0,74,29.80,10.0,South,8.1,-,N/A,,Overcast,190,2013-11-01 20:56:00
5:56 PM,75.9,68.0,76,29.78,10.0,SSW,9.2,-,N/A,,Mostly Cloudy,200,2013-11-01 21:56:00
6:56 PM,75.0,68.0,79,29.77,10.0,South,8.1,-,N/A,,Mostly Cloudy,190,2013-11-01 22:56:00
7:56 PM,73.9,69.1,85,29.80,9.0,SSW,10.4,16.1,0.00,Rain,Light Rain,210,2013-11-01 23:56:00
8:56 PM,73.0,69.1,87,29.80,6.0,SSW,5.8,-,0.02,Rain,Rain,210,2013-11-02 00:56:00
9:22 PM,72.0,70.0,93,29.79,2.5,South,3.5,-,0.09,Rain,Rain,190,2013-11-02 01:22:00
9:44 PM,72.0,70.0,93,29.79,3.0,SSW,6.9,-,0.16,Rain,Rain,210,2013-11-02 01:44:00
9:56 PM,72.0,70.0,93,29.78,7.0,South,5.8,-,0.16,Rain,Light Rain,190,2013-11-02 01:56:00
10:38 PM,71.1,69.1,93,29.80,7.0,NW,9.2,-,0.12,Rain,Light Rain,310,2013-11-02 02:38:00
10:56 PM,71.1,69.1,93,29.79,10.0,NW,4.6,-,0.13,Rain,Light Rain,320,2013-11-02 02:56:00
11:41 PM,70.0,66.9,90,29.80,3.0,WNW,9.2,-,0.06,Rain,Rain,300,2013-11-02 03:41:00
11:56 PM,70.0,66.9,90,29.80,3.0,WNW,8.1,-,0.12,Rain,Rain,290,2013-11-02 03:56:00